• In Germany
  • List of Countries
  • For 7 days
  • Water Temperature
  • Satellite Maps
  • Weather Map
  • Weather Widgets
  • user-avatar
    Login

    Hourly Weather Lyubovka

    Today, 23 April, Monday

    Time Temperature Precipitation Wind Pressure Humidity
    00:00 +3°C° 0 mm 2 mps 742 mmHg 74%
    01:00 +3°C° 0 mm 2 mps 742 mmHg 74%
    02:00 +2°C° 0 mm 2 mps 743 mmHg 72%
    03:00 +2°C° 0 mm 2 mps 743 mmHg 74%
    04:00 +1°C° 0 mm 2 mps 743 mmHg 76%
    05:00 -1°C° 0 mm 2 mps 743 mmHg 77%
    06:00 +2°C° 0 mm 2 mps 744 mmHg 68%
    07:00 +3°C° 0 mm 2 mps 744 mmHg 59%
    08:00 +3°C° 0 mm 3 mps 745 mmHg 48%
    09:00 +4°C° 0 mm 3 mps 745 mmHg 45%
    10:00 +5°C° 0 mm 3 mps 745 mmHg 42%
    11:00 +7°C° 0 mm 3 mps 745 mmHg 39%
    12:00 +8°C° 0 mm 3 mps 745 mmHg 38%
    13:00 +8°C° 0 mm 3 mps 745 mmHg 36%
    14:00 +9°C° 0 mm 3 mps 744 mmHg 35%
    15:00 +9°C° 0 mm 2 mps 744 mmHg 36%
    16:00 +9°C° 0 mm 2 mps 744 mmHg 37%
    17:00 +9°C° 0 mm 2 mps 744 mmHg 37%
    18:00 +8°C° 0 mm 1 mps 744 mmHg 42%
    19:00 +7°C° 0 mm 1 mps 744 mmHg 47%
    20:00 +4°C° 0 mm 0 mps 744 mmHg 52%
    21:00 +5°C° 0 mm 1 mps 744 mmHg 54%
    22:00 +4°C° 0 mm 1 mps 744 mmHg 55%
    23:00 +4°C° 0 mm 1 mps 745 mmHg 56%

    Tomorrow, 24 April, Tuesday

    Time Temperature Precipitation Wind Pressure Humidity
    00:00 +4°C° 0 mm 1 mps 744 mmHg 58%
    01:00 +2°C° 0 mm 2 mps 744 mmHg 60%
    02:00 +2°C° 0 mm 2 mps 744 mmHg 61%
    03:00 +2°C° 0 mm 2 mps 744 mmHg 63%
    04:00 +2°C° 0 mm 2 mps 744 mmHg 64%
    05:00 +1°C° 0 mm 2 mps 744 mmHg 66%
    06:00 +3°C° 0 mm 2 mps 744 mmHg 62%
    07:00 +4°C° 0 mm 3 mps 743 mmHg 59%
    08:00 +7°C° 0 mm 3 mps 743 mmHg 55%
    09:00 +8°C° 0 mm 3 mps 743 mmHg 55%
    10:00 +8°C° 0 mm 4 mps 743 mmHg 54%
    11:00 +11°C° 0 mm 4 mps 742 mmHg 54%
    12:00 +11°C° 0 mm 4 mps 742 mmHg 56%
    13:00 +10°C° 0 mm 5 mps 742 mmHg 59%
    14:00 +12°C° 0 mm 5 mps 741 mmHg 61%
    15:00 +10°C° 0 mm 5 mps 741 mmHg 65%
    16:00 +10°C° 0 mm 5 mps 740 mmHg 70%
    17:00 +11°C° 0 mm 4 mps 740 mmHg 75%
    18:00 +10°C° 0.2 mm 4 mps 740 mmHg 80%
    19:00 +8°C° 0.2 mm 4 mps 740 mmHg 86%
    20:00 +9°C° 0.2 mm 3 mps 740 mmHg 91%
    21:00 +8°C° 0 mm 3 mps 739 mmHg 93%
    22:00 +8°C° 0 mm 3 mps 739 mmHg 94%
    23:00 +8°C° 0 mm 3 mps 739 mmHg 95%

    Day after tomorrow, 25 April, Wednesday

    Time Temperature Precipitation Wind Pressure Humidity
    00:00 +7°C° 0.1 mm 3 mps 739 mmHg 95%
    01:00 +7°C° 0.1 mm 3 mps 739 mmHg 95%
    02:00 +7°C° 0.1 mm 3 mps 739 mmHg 94%
    03:00 +7°C° 0 mm 3 mps 739 mmHg 94%
    04:00 +5°C° 0 mm 3 mps 739 mmHg 94%
    05:00 +5°C° 0 mm 3 mps 739 mmHg 94%
    06:00 +7°C° 0 mm 3 mps 739 mmHg 87%
    07:00 +8°C° 0 mm 4 mps 739 mmHg 79%
    08:00 +9°C° 0 mm 5 mps 739 mmHg 72%
    09:00 +10°C° 0.1 mm 5 mps 739 mmHg 72%
    10:00 +10°C° 0.1 mm 5 mps 739 mmHg 72%
    11:00 +12°C° 0.1 mm 5 mps 739 mmHg 72%
    12:00 +13°C° 0.1 mm 6 mps 738 mmHg 66%
    13:00 +13°C° 0.1 mm 6 mps 738 mmHg 61%
    14:00 +14°C° 0.1 mm 7 mps 738 mmHg 55%
    15:00 +14°C° 0 mm 6 mps 738 mmHg 55%
    16:00 +14°C° 0 mm 5 mps 738 mmHg 56%
    17:00 +14°C° 0 mm 4 mps 738 mmHg 56%
    18:00 +12°C° 0 mm 4 mps 738 mmHg 60%
    19:00 +11°C° 0 mm 3 mps 738 mmHg 65%
    20:00 +10°C° 0 mm 3 mps 738 mmHg 69%
    21:00 +9°C° 0.1 mm 3 mps 738 mmHg 74%
    22:00 +9°C° 0.1 mm 2 mps 738 mmHg 78%
    23:00 +8°C° 0.1 mm 2 mps 738 mmHg 83%

    26 April, Thursday

    Time Temperature Precipitation Wind Pressure Humidity
    00:00 +8°C° 0.4 mm 3 mps 737 mmHg 85%
    01:00 +9°C° 0.4 mm 3 mps 737 mmHg 88%
    02:00 +8°C° 0.4 mm 4 mps 736 mmHg 91%
    03:00 +10°C° 1.2 mm 4 mps 736 mmHg 92%
    04:00 +10°C° 1.2 mm 4 mps 735 mmHg 93%
    05:00 +11°C° 1.2 mm 4 mps 735 mmHg 95%
    06:00 +10°C° 0.2 mm 5 mps 735 mmHg 92%
    07:00 +11°C° 0.2 mm 6 mps 735 mmHg 89%
    08:00 +11°C° 0.2 mm 6 mps 735 mmHg 85%
    09:00 +12°C° 0.2 mm 7 mps 735 mmHg 78%
    10:00 +12°C° 0.2 mm 8 mps 736 mmHg 71%
    11:00 +13°C° 0.2 mm 9 mps 736 mmHg 64%
    12:00 +13°C° 0 mm 8 mps 737 mmHg 62%
    13:00 +12°C° 0 mm 8 mps 737 mmHg 60%
    14:00 +12°C° 0 mm 7 mps 738 mmHg 58%
    15:00 +13°C° 0 mm 6 mps 738 mmHg 57%
    16:00 +13°C° 0 mm 6 mps 739 mmHg 56%
    17:00 +13°C° 0 mm 5 mps 739 mmHg 56%
    18:00 +12°C° 0 mm 4 mps 739 mmHg 62%
    19:00 +10°C° 0 mm 3 mps 740 mmHg 68%
    20:00 +9°C° 0 mm 2 mps 740 mmHg 75%
    21:00 +8°C° 0 mm 2 mps 741 mmHg 76%
    22:00 +8°C° 0 mm 2 mps 741 mmHg 78%
    23:00 +7°C° 0 mm 2 mps 741 mmHg 80%

    27 April, Friday

    Time Temperature Precipitation Wind Pressure Humidity
    00:00 +7°C° 0 mm 2 mps 741 mmHg 80%
    01:00 +7°C° 0 mm 2 mps 741 mmHg 81%
    02:00 +7°C° 0 mm 2 mps 742 mmHg 81%
    03:00 +7°C° 0 mm 2 mps 742 mmHg 81%
    04:00 +7°C° 0 mm 2 mps 742 mmHg 82%
    05:00 +7°C° 0 mm 2 mps 742 mmHg 82%
    06:00 +8°C° 0.1 mm 2 mps 742 mmHg 83%
    07:00 +8°C° 0.1 mm 2 mps 742 mmHg 83%
    08:00 +9°C° 0.1 mm 3 mps 742 mmHg 83%
    09:00 +9°C° 0.6 mm 3 mps 742 mmHg 84%
    10:00 +9°C° 0.6 mm 2 mps 741 mmHg 85%
    11:00 +9°C° 0.6 mm 2 mps 741 mmHg 86%
    12:00 +10°C° 0.5 mm 2 mps 741 mmHg 85%
    13:00 +10°C° 0.5 mm 2 mps 741 mmHg 83%
    14:00 +10°C° 0.5 mm 2 mps 741 mmHg 82%
    15:00 +10°C° 0.3 mm 3 mps 741 mmHg 83%
    16:00 +10°C° 0.3 mm 3 mps 741 mmHg 83%
    17:00 +10°C° 0.3 mm 3 mps 741 mmHg 84%
    18:00 +9°C° 0.1 mm 3 mps 741 mmHg 86%
    19:00 +7°C° 0.1 mm 4 mps 741 mmHg 88%
    20:00 +7°C° 0.1 mm 4 mps 742 mmHg 90%
    21:00 +6°C° 0 mm 4 mps 742 mmHg 90%
    22:00 +5°C° 0 mm 3 mps 743 mmHg 91%
    23:00 +4°C° 0 mm 3 mps 743 mmHg 91%

    28 April, Saturday

    Time Temperature Precipitation Wind Pressure Humidity
    00:00 +4°C° 0 mm 3 mps 744 mmHg 92%
    01:00 +4°C° 0 mm 3 mps 744 mmHg 93%
    02:00 +4°C° 0 mm 3 mps 745 mmHg 93%
    03:00 +3°C° 0 mm 3 mps 745 mmHg 94%
    04:00 +3°C° 0 mm 3 mps 746 mmHg 94%
    05:00 +3°C° 0 mm 3 mps 746 mmHg 94%
    06:00 +4°C° 0 mm 3 mps 747 mmHg 88%
    07:00 +7°C° 0 mm 3 mps 747 mmHg 81%
    08:00 +8°C° 0 mm 3 mps 748 mmHg 74%
    09:00 +10°C° 0 mm 4 mps 748 mmHg 67%
    10:00 +11°C° 0 mm 4 mps 749 mmHg 59%
    11:00 +12°C° 0 mm 4 mps 749 mmHg 52%
    12:00 +13°C° 0 mm 4 mps 749 mmHg 49%
    13:00 +14°C° 0 mm 4 mps 749 mmHg 46%
    14:00 +14°C° 0 mm 3 mps 749 mmHg 43%
    15:00 +14°C° 0 mm 3 mps 749 mmHg 44%
    16:00 +14°C° 0 mm 3 mps 749 mmHg 45%
    17:00 +15°C° 0 mm 2 mps 749 mmHg 46%
    18:00 +13°C° 0 mm 2 mps 749 mmHg 52%
    19:00 +11°C° 0 mm 1 mps 749 mmHg 57%
    20:00 +10°C° 0 mm 1 mps 750 mmHg 62%
    21:00 +9°C° 0 mm 1 mps 750 mmHg 62%
    22:00 +9°C° 0 mm 1 mps 750 mmHg 63%
    23:00 +9°C° 0 mm 1 mps 750 mmHg 63%
    Show more